Overview Statistics Trail Chart Weather Telemetry Raw packets
 

This is the latest recevied weather packets stored in our database for station/object KA6AKH-WX. If no packets are shown the sender has not sent any weather packets the latest 10 day(s).

<< 17 18 19 20 21 22 23 >>
Time Temp. Humidity Pressure Rain* Wind** Luminosity Snow
1788111892 28.33° C 68% 1020.8 hPa 0 mm - - -
1788111292 28.33° C 69% 1020.9 hPa 0 mm - - -
1788110092 28.33° C 68% 1021.1 hPa 0 mm - - -
1788109492 28.33° C 69% 1021.2 hPa 0 mm - - -
1788108892 28.33° C 67% 1021.3 hPa 0 mm - - -
1788108292 28.89° C 67% 1021.3 hPa 0 mm - - -
1788107692 28.33° C 70% 1021.4 hPa 0 mm - - -
1788107092 28.33° C 67% 1021.6 hPa 0 mm - - -
1788106492 28.33° C 70% 1021.7 hPa 0 mm - - -
1788105293 27.78° C 73% 1021.8 hPa 0 mm - - -
1788104692 27.22° C 75% 1021.8 hPa 0 mm - - -
1788104093 27.22° C 76% 1021.8 hPa 0 mm - - -
1788103492 26.67° C 76% 1021.9 hPa 0 mm - - -
1788102892 26.67° C 77% 1021.9 hPa 0 mm - - -
1788102298 26.67° C 78% 1021.9 hPa 0 mm - - -
1788101692 26.11° C 80% 1021.8 hPa 0 mm - - -
1788101092 25.56° C 82% 1021.8 hPa 0 mm - - -
1788100492 25° C 83% 1021.8 hPa 0 mm - - -
1788099892 25° C 86% 1021.8 hPa 0 mm - - -
1788099262 24.44° C 88% 1021.8 hPa 0 mm - - -
1788098662 24.44° C 89% 1022 hPa 0 mm - - -
1788098062 23.89° C 90% 1022 hPa 0 mm - - -
1788097462 23.89° C 91% 1022.3 hPa 0 mm - - -
1788096832 23.89° C 91% 1022.3 hPa 0 mm - - -
1788096203 23.89° C 91% 1022.4 hPa 0 mm - - -

* Rain latest hour (hover to see other rain measurements)
** Current wind speed in m/s (hover to see current wind gust speed)